Pittsfield, MA

7:01 AM EDT on October 19, 2019 (GMT -0400)
Pittsfield Municipal

Weather History for KPSF - August, 2019

Change the Weather History Date:

Tuesday, August 13, 2019

  Actual Average Record
Temperature  
Mean Temperature 71 °F 67 °F  
Max Temperature 77 °F 78 °F 93 °F (2002)
Min Temperature 65 °F 57 °F 40 °F (1957)
Degree Days  
Heating Degree Days 0 1  
Month to date heating degree days 2 13  
Since 1 June heating degree days 69 145  
Since 1 July heating degree days 2 44  
Cooling Degree Days 6 3  
Month to date cooling degree days 48 51  
Year to date cooling degree days 324 228  
Since 1 June cooling degree days 318 215  
Growing Degree Days 20 (Base 50)    
Moisture  
Dew Point 64 °F    
Average Humidity 81    
Maximum Humidity 93    
Minimum Humidity 69    
Precipitation  
Precipitation 0.12 in 0.11 in 2.47 in (1955)
Month to date precipitation 0.63 1.79  
Year to date precipitation 26.77 27.48  
Sea Level Pressure  
Sea Level Pressure 29.77 in    
Wind  
Wind Speed 3 mph (SW)    
Max Wind Speed 13 mph    
Max Gust Speed 19 mph    
Visibility 7 miles    
Events Fog , Rain    
T = Trace of Precipitation, MM = Missing Value Source: NWS Daily Summary

Daily Weather History Graph

Daily Weather History Graph

Search for Another Location

Airport or City:

Astronomy

Aug. 13, 2019 Rise Set
Actual Time 5:57 AM EDT 7:57 PM EDT
Civil Twilight 5:27 AM EDT 8:28 PM EDT
Nautical Twilight 4:49 AM EDT 9:05 PM EDT
Astronomical Twilight 4:08 AM EDT 9:45 PM EDT
Moon 7:12 PM EDT (8/13) 3:54 AM EDT (8/13)
Length of Visible Light 15h 00m
Length of Day
13h 59m
Waxing Gibbous, 97% of the Moon is Illuminated
Aug 13
Waxing Gibbous
Aug 15
Full
Aug 23
Last Quarter
Aug 30
New
Sep 5
First Quarter

Hourly Weather History & Observations

Time (EDT) Temp. Dew Point Humidity Pressure Visibility Wind Dir Wind Speed Gust Speed Precip Events Conditions
12:54 AM 66.0 °F 63.0 °F 90% 29.78 in 9.0 mi Calm Calm - N/A   Mostly Cloudy
1:54 AM 66.0 °F 63.0 °F 90% 29.77 in 10.0 mi Calm Calm - N/A   Overcast
2:54 AM 66.0 °F 63.0 °F 90% 29.76 in 8.0 mi Calm Calm - N/A   Overcast
3:54 AM 64.9 °F 63.0 °F 93% 29.75 in 8.0 mi Calm Calm - N/A   Overcast
4:54 AM 66.0 °F 63.0 °F 90% 29.74 in 9.0 mi Calm Calm - N/A   Overcast
5:54 AM 64.9 °F 63.0 °F 93% 29.74 in 8.0 mi Calm Calm - N/A   Mostly Cloudy
6:54 AM 66.0 °F 63.0 °F 90% 29.75 in 10.0 mi Calm Calm - N/A   Partly Cloudy
7:54 AM 69.1 °F 64.0 °F 84% 29.75 in 10.0 mi Calm Calm - N/A   Clear
8:54 AM 71.1 °F 64.9 °F 81% 29.75 in 10.0 mi Calm Calm - N/A   Clear
9:54 AM 71.1 °F 64.9 °F 81% 29.76 in 8.0 mi SW 4.6 mph - 0.00 in Rain Light Rain
10:54 AM 72.0 °F 66.0 °F 81% 29.76 in 9.0 mi SW 5.8 mph - 0.01 in Rain Light Rain
11:54 AM 73.0 °F 66.0 °F 79% 29.76 in 9.0 mi West 6.9 mph - 0.00 in Rain Light Rain
12:54 PM 73.9 °F 64.9 °F 73% 29.76 in 10.0 mi WSW 6.9 mph - 0.01 in   Mostly Cloudy
1:34 PM 73.0 °F 64.9 °F 76% 29.82 in 10.0 mi SSW 5.8 mph - N/A   Overcast
1:54 PM 73.0 °F 64.9 °F 76% 29.74 in 10.0 mi WSW 6.9 mph - N/A   Overcast
2:31 PM 73.0 °F 64.0 °F 73% 29.80 in 10.0 mi SW 6.9 mph - N/A   Overcast
2:45 PM 73.0 °F 64.9 °F 76% 29.80 in 10.0 mi SW 4.6 mph - N/A   Overcast
2:54 PM 73.0 °F 64.9 °F 76% 29.72 in 10.0 mi SW 6.9 mph - N/A   Overcast
3:02 PM 73.0 °F 64.9 °F 76% 29.79 in 10.0 mi SW 6.9 mph - N/A   Overcast
3:54 PM 73.9 °F 64.9 °F 73% 29.71 in 10.0 mi SW 5.8 mph - N/A   Overcast
4:54 PM 75.9 °F 64.9 °F 69% 29.70 in 10.0 mi SW 6.9 mph - N/A   Partly Cloudy
5:54 PM 75.9 °F 64.9 °F 69% 29.70 in 10.0 mi SW 3.5 mph - N/A   Mostly Cloudy
6:54 PM 75.0 °F 64.9 °F 71% 29.71 in 10.0 mi South 3.5 mph - N/A   Mostly Cloudy
7:41 PM 71.1 °F 64.9 °F 81% 29.80 in 1.5 mi West 9.2 mph 18.4 mph 0.09 in Rain Heavy Rain
7:54 PM 71.1 °F 64.9 °F 81% 29.73 in 9.0 mi SW 4.6 mph - 0.10 in Rain Light Rain
8:54 PM 69.1 °F 66.0 °F 90% 29.74 in 10.0 mi Calm Calm - 0.00 in   Overcast
9:54 PM 66.0 °F 64.0 °F 93% 29.75 in 7.0 mi South 3.5 mph - N/A   Partly Cloudy
10:54 PM 66.9 °F 64.0 °F 90% 29.76 in 7.0 mi SE 3.5 mph - N/A   Clear
10:57 PM 66.0 °F 64.0 °F 93% 29.83 in 2.5 mi ESE 3.5 mph - N/A   Partly Cloudy
11:04 PM 66.0 °F 64.0 °F 93% 29.83 in 1.2 mi Calm Calm - N/A   Partly Cloudy
11:13 PM 66.0 °F 64.0 °F 93% 29.83 in 2.5 mi Calm Calm - N/A   Clear
11:18 PM 64.9 °F 63.0 °F 93% 29.83 in 1.0 mi Calm Calm - N/A   Mist
11:22 PM 64.9 °F 63.0 °F 93% 29.83 in 0.5 mi Calm Calm - N/A Fog Fog
11:32 PM 66.0 °F 64.0 °F 93% 29.83 in 1.2 mi Calm Calm - N/A   Partly Cloudy
11:34 PM 66.0 °F 64.0 °F 93% 29.83 in 3.0 mi Calm Calm - N/A   Partly Cloudy
11:46 PM 64.9 °F 64.0 °F 97% 29.83 in 2.5 mi Calm Calm - N/A   Partly Cloudy
11:54 PM 64.9 °F 63.0 °F 93% 29.76 in 6.0 mi Calm Calm - N/A   Clear